Regional Weather Roundup
Issued by NWS

Home | Current Version | Previous Version | Graphics & Text | Print | Product List | Glossary On
Versions: 1 2 3 4 5 6 7 8 9 10 11 12 13 14 15 16 17 18 19 20 21 22 23 24 25 26 27 28 29 30 31 32 33 34 35 36 37 38 39 40 41 42 43 44 45 46 47 48 49 50
000
ASUS43 KMPX 121110
RWRMN
WEATHER ROUNDUP FOR MINNESOTA
NATIONAL WEATHER SERVICE TWIN CITIES/CHANHASSEN MN
500 AM CST TUE DEC 12 2017


NOTE: "FAIR" INDICATES FEW OR NO CLOUDS BELOW 12,000 FEET WITH NO
SIGNIFICANT WEATHER AND/OR OBSTRUCTIONS TO VISIBILITY. N/A MEANS
CURRENT SKY AND/OR WEATHER CONDITIONS ARE NOT AVAILABLE.

MNZ060>063-068>070-121200-
   Twin Cities Metro

CITY           SKY/WX    TMP DP  RH WIND       PRES   REMARKS
TWIN CITIES    CLEAR      8   3  80 NW9       30.25S WCI  -5
ST PAUL        CLEAR      8   2  76 NW12      30.26F WCI  -7
CRYSTAL        CLEAR      6  -1  73 NW9       30.24S WCI  -8
BLAINE         CLEAR      7   1  78 NW7       30.23S WCI  -5
LAKEVILLE      CLEAR      7   3  85 NW10      30.23S WCI  -8
EDEN PRAIRIE   CLEAR      9   2  73 NW9       30.24F WCI  -4
SOUTH ST PAUL  CLEAR      9   3  75 NW8G16    30.24S WCI  -3
LAKE ELMO      FAIR       9   3  78 NW9       30.23S WCI  -5
$$
MNZ001>005-007-008-013>017-022>024-027-028-121200-
   Northwest Minnesota

CITY           SKY/WX    TMP DP  RH WIND       PRES   REMARKS
BEMIDJI        CLOUDY    -2  -5  86 SW3       30.15F
HALLOCK        CLOUDY    14  10  85 S12       30.12F WCI   0
ROSEAU         FLURRIES   1  -4  78 S6        30.13F WCI -10
WARROAD        CLOUDY     0  -6  78 CALM      30.13F
THIEF RVR FALL CLOUDY     9   7  92 S9        30.15F WCI  -4
CROOKSTON      CLOUDY    12  10  92 S10       30.17F WCI  -1
FOSSTON        CLOUDY     7   3  85 S8        30.16F WCI  -6
DETROIT LAKES  CLOUDY    10   9  92 S3        30.18F
MOORHEAD       CLOUDY    12   7  79 CALM      30.21F
PARK RAPIDS    CLOUDY     2  -2  83 SW3       30.16F
MAHNOMEN       CLOUDY     8   6  89 S8        30.17F WCI  -4
$$
MNZ006-009>011-018-025>026-121200-
   North Central Minnesota

CITY           SKY/WX    TMP DP  RH WIND       PRES   REMARKS
BAUDETTE       CLOUDY    -2  -5  87 SW3       30.12F
FLAG ISLAND    CLOUDY    -2  -6  84 CALM      30.12F
INTL FALLS       N/A     -3  -8  79 W5        30.13F WCI -13
WASKISH        CLOUDY     0  -4  85 CALM      30.15F
LONGVILLE      CLOUDY    -6  -9  84 CALM      30.17F
GRAND RAPIDS   CLOUDY    -1  -4  87 NW7       30.16F WCI -14
CRANE LAKE     CLOUDY    -6  -8  92 CALM      30.16S
ORR            CLOUDY    -2  -6  84 NW6       30.10S WCI -14
COOK           CLOUDY    -2  -6  84 W5        30.13F WCI -12
WALKER         FAIR       0  -3  86 CALM      30.17F
$$
MNZ012-019>021-037-121200-
   Northeast Minnesota

CITY           SKY/WX    TMP DP  RH WIND       PRES   REMARKS
DULUTH         CLOUDY     0  -3  87 W8        30.12S WCI -14
ELY            CLOUDY    -6  -8  92 CALM      30.10S
HIBBING        CLOUDY     0  -3  87 N10       30.13F WCI -16
EVELETH        LGT SNOW   0  -6  77 W3        30.13S
DULUTH HARBOR  PTCLDY     7   1  78 W13       30.21F WCI  -9
TWO HARBORS    CLEAR      0  -8  71 CALM      30.11F
GRAND MARAIS     N/A      4  -5  66 CALM      30.12F
G MARAIS ARPRT CLEAR     -4 -11  71 NW9       29.97F WCI -20
$$
MNZ029>031-032-039>041-046>048-054>057-064-121200-
   West Central Minnesota

CITY           SKY/WX    TMP DP  RH WIND       PRES   REMARKS
FERGUS FALLS   CLOUDY     9   7  92 S6        30.25F WCI  -1
WHEATON        CLOUDY    12   7  79 S6        30.25F WCI   3
MORRIS         CLOUDY     9   7  92 CALM      30.23F
ALEXANDRIA     CLOUDY     8   4  83 W10       30.22F WCI  -6
ELBOW LAKE     CLOUDY     8   6  89 E3        30.23F
WADENA         CLOUDY     3   1  92 W7        30.19F WCI  -9
GLENWOOD       CLOUDY     9   5  85 W8        30.23F WCI  -4
APPLETON         N/A      9   5  85 SW5       30.27F WCI   0
BENSON         CLOUDY     7   1  78 CALM      30.27F
ORTONVILLE     CLOUDY     9   7  92 CALM      30.25F
MADISON        CLOUDY    12   9  85 CALM      30.28F
WILLMAR        FAIR       9   7  92 W5        30.27S WCI   0
$$
MNZ033>034-036-042>043-049>051-058-059-121200-
   Central Minnesota

CITY           SKY/WX    TMP DP  RH WIND       PRES   REMARKS
ST CLOUD       CLOUDY     3   0  87 NW6       30.24F WCI  -8
SAUK CENTRE    CLOUDY     6   2  83 W8        30.23F WCI  -6
PAYNESVILLE    CLOUDY     7   4  88 W6        30.25S WCI  -3
AITKIN         CLOUDY     0  -6  78 W5        30.18S WCI -10
PINE RIVER     CLOUDY    -2  -6  84 CALM      30.21F
BRAINERD       CLOUDY     1  -3  83 W8        30.20F FOG     WCI -13
STAPLES        CLOUDY     0  -4  85 W5        30.20F WCI -10
LONG PRAIRIE   CLOUDY     5   1  85 SW5       30.22F WCI  -4
LITTLE FALLS   CLOUDY     1  -6  71 CALM      30.24S
LITCHFIELD     CLOUDY    10   7  85 NW7       30.25S WCI   0
BUFFALO        CLOUDY     7   1  78 W7        30.26S WCI  -5
MAPLE LAKE     CLOUDY     8   4  84 W3        30.25F
HUTCHINSON     PTCLDY     8   5  85 W7        30.27R WCI  -3
$$
MNZ037-044-045-052-053-121200-
   East Central Minnesota

CITY           SKY/WX    TMP DP  RH WIND       PRES   REMARKS
PRINCETON      CLOUDY     3   0  85 W6        30.23F WCI  -8
MORA           CLOUDY     1  -2  85 W3        30.23F
CAMBRIDGE      CLOUDY     3  -2  78 W5        30.23F WCI  -6
RUSH CITY      CLOUDY     2  -1  88 W5        30.22F WCI  -7
MOOSE LAKE     PTCLDY     3   0  85 CALM      30.17F
HINCKLEY       FAIR       3   1  92 W5        30.20F WCI  -6
CLOQUET        PTCLDY     0  -6  78 W5        30.14F WCI -10
MCGREGOR       PTCLDY     1   0  92 CALM      30.17F
$$
MNZ071>073-080-081-089-090-097-098-121200-
   Southwest Minnesota

CITY           SKY/WX    TMP DP  RH WIND       PRES   REMARKS
MONTEVIDEO     CLOUDY     9   5  85 CALM      30.29S
GRANITE FALLS  CLOUDY     8   5  89 W6        30.30F WCI  -2
CANBY          CLOUDY    14  11  87 W6        30.29F WCI   5
MARSHALL       CLOUDY     9   5  84 W8        30.28F WCI  -3
REDWOOD FALLS  CLOUDY    10   4  76 NW8       30.27F WCI  -2
OLIVIA         CLOUDY    10   7  85 NW8       30.26S WCI  -1
PIPESTONE      CLOUDY    12   9  85 NW6       30.25F WCI   3
WINDOM           N/A     10   0  61 NW12      30.24F WCI  -4
WORTHINGTON    CLOUDY     9   6  88 W7        30.26F WCI  -2
JACKSON        CLEAR     12   7  79 MISG      30.24F
TRACY          CLOUDY    13  10  89 W3        30.27S
SLAYTON        CLOUDY    10   7  88 NW7       30.25F WCI  -2
$$
MNZ065>067-074>077-082>085-091>093-121200-
   South Central Minnesota

CITY           SKY/WX    TMP DP  RH WIND       PRES   REMARKS
MANKATO        CLEAR      8   4  83 NW10      30.26F WCI  -6
NEW ULM        CLEAR      9   3  78 NW8       30.26F WCI  -4
ST JAMES       CLEAR     10   7  85 NW8       30.27S WCI  -1
FAIRMONT       CLEAR     11   6  81 NW13      30.26F WCI  -4
GLENCOE        MOCLDY    10   5  80 W6        30.25F WCI   0
FARIBAULT      CLEAR      9   3  78 NW7       30.22F WCI  -3
OWATONNA       CLEAR      7   3  85 NW9       30.21F WCI  -7
WASECA         CLEAR     10   5  79 W8        30.24F WCI  -1
ALBERT LEA     CLEAR      9   3  78 NW7       30.21S WCI  -3
$$
MNZ078>079-086>088-094>096-121200-
   Southeast Minnesota

CITY           SKY/WX    TMP DP  RH WIND       PRES   REMARKS
ROCHESTER      PTCLDY     7   5  91 NW9       30.18S WCI  -7
RED WING       CLEAR     10   1  67 NW7       30.22S WCI   0
STANTON        CLEAR     10   5  80 NW8       30.22F WCI  -3
DODGE CENTER   PTCLDY     7   3  85 NW14      30.18S WCI -10
WINONA           N/A     14   9  79 NW14      30.21S WCI  -1
PRESTON        CLEAR     10   7  86 NW9       30.17R WCI  -3
$$
ABBREVIATIONS USED IN REMARKS
   TC - TEMPERATURES IN CELSIUS
  WCI - WIND CHILL INDEX
   HX - HEAT INDEX
  VSB - VISIBILITY
$$




USA.gov is the U.S. government's official web portal to all federal, state and local government web resources and services.